Regional Weather Roundup
Issued by NWS

Home | Current Version | Previous Version | Graphics & Text | Print | Product List | Glossary On
Versions: 1 2 3 4 5 6 7 8 9 10 11 12 13 14 15 16 17 18 19 20 21 22 23 24 25 26 27 28 29 30 31 32 33 34 35 36 37 38 39 40 41 42 43 44 45 46 47 48 49 50
000
ASUS43 KFSD 210810
RWRSD

WEATHER ROUNDUP FOR SOUTH DAKOTA
NATIONAL WEATHER SERVICE SIOUX FALLS SD
200 AM CST WED FEB 21 2018

NOTE: "FAIR" INDICATES FEW OR NO CLOUDS BELOW 12,000 FEET WITH NO
SIGNIFICANT WEATHER AND/OR OBSTRUCTIONS TO VISIBILITY.


SDZ001>005-009-010-012>017-210900-
NORTHWEST AND NORTH CENTRAL SOUTH DAKOTA

CITY           SKY/WX    TMP DP  RH WIND       PRES   REMARKS
BUFFALO          N/A     -3 -12  65 SW6       30.15S WCI -15
FAITH            N/A    -12 -16  82 S10       30.32R WCI -31
MOBRIDGE       CLEAR     -7 -14  71 NW6       30.34R WCI -20
$$

SDZ012>016-024>037-041>051-057-063-072>074-210900-
SOUTHWEST AND SOUTH CENTRAL SOUTH DAKOTA

CITY           SKY/WX    TMP DP  RH WIND       PRES   REMARKS
RAPID CTY ARPT CLEAR     -8 -13  78 E5        30.28R WCI -19
PIERRE         NOT AVBL
CUSTER         PTCLDY    -5 -13  68 CALM      30.08R
ELLSWORTH AFB  PTCLDY    -1  -6  80 CALM      30.26R
PHILIP         PTCLDY   -10 -14  82 W13       30.40R WCI -30
PINE RIDGE     CLEAR    -18 -23  77 CALM      30.31R
SPEARFISH        N/A     -2 -11  65 SE5       30.21R WCI -12
WINNER         FAIR      -1 -11  62 SW9       30.43R WCI -16
$$

SDZ004>011-016>023-039-040-210900-
NORTHEAST SOUTH DAKOTA

CITY           SKY/WX    TMP DP  RH WIND       PRES   REMARKS
ABERDEEN       CLEAR    -13 -18  78 SW10      30.42R WCI -32
WATERTOWN      CLOUDY    -8 -12  83 SW10      30.36R WCI -26
BROOKINGS      CLOUDY    -2  -8  76 W10       30.41R WCI -19
SISSETON         N/A      0  -7  72 W12       30.39R WCI -17
$$

SDZ017-020-022-023-036>040-048>070-210900-
SOUTHEAST SOUTH DAKOTA

CITY           SKY/WX    TMP DP  RH WIND       PRES   REMARKS
SIOUX FALLS    CLOUDY     0  -6  76 W6        30.45R WCI -12
HURON          CLEAR     -4 -10  75 W6        30.46R WCI -16
CHAMBERLAIN    CLEAR     -5 -11  75 SW5       30.47R WCI -15
MITCHELL       CLEAR     -1  -7  75 W10       30.49R WCI -17
YANKTON        CLOUDY     1  -5  75 CALM      30.50R
$$

ABBREVIATIONS USED IN REMARKS
   TC - TEMPERATURE IN CELSIUS
  WCI - WIND CHILL INDEX
   HX - HEAT INDEX
  VSB - VISIBILITY




USA.gov is the U.S. government's official web portal to all federal, state and local government web resources and services.